Погода в Аральске

Погода в Аральске : погода сейчас, прогноз погоды и архив. Всё, что Вы хотите узнать о погоде в Аральске!

Хотите узнать прогноз погоды в Аральске? Тогда Вам сюда: Погода в Аральске

Поиск расширенной информации на нашем сайте:

Другие новости

Новости СМИ2

Главная страница сайта

Новости сайта

02.10.2013

Напоминаем, что на нашем новом сайте вы можете получить высокодетализированные прогнозы погоды по пунктам России, СНГ и мира (включающие важные для авиации метеовеличины, такие как направление и скорость ветра, видимость, явления погоды, количество и форма облачности, нижняя и верхняя граница облачности), а также ознакомиться с разнообразными материалами по авиационной метеорологии и подборкой полезных ссылок на эту тему.

Сайт Метеоцентр.Азия посвящён разработке технологий оптимизации авиаметеорологического обслуживания, включая проектирование и перспективное создание нескольких автоматизированных авиаметеорологических систем:
- система выпуска высокодетальных прогностических карт явлений погоды для нижнего воздушного пространства по России и ближнему зарубежью;
- система верификации прогнозов TAF (выпускаемых синоптиками официальных АМСГ РФ и ближнего зарубежья) и AUTOTAF (выпускаемых сайтом Метеоцентр.Азия) - выявление ошибок, онлайн-сопоставление с фактической погодой METAR, автоматическое внесение коррективов в прогнозы при резком отклонении фактической погоды от прогноза, подсчёт оправдываемости прогнозов по элементам и в целом;
- система обработки, анализа и отображения авиаметеорологической информации для применения провайдерами метеорологической информации.


Погода в Аральске - сегодня

Время (UTC), дата Ветер
(°,м/с) 
Видим.   Явления Облачность Т
(°С)
Тd
(°С)
f(%) Тe
(°С)
Pmin
(гПа)
dP
(гПа)
Po
(мм)
O2
(г/м3)
Тmin Tmax R s Состояние
почвы
12 22.05.17 230 (ЮЗ) 20000 м    9/4 600 м кучево-дожд., средняя 
[Cb calv|Ac und]
+30.9 +8.4 25 +31  997.1  -0.9  743  268           
21 22.05.17 250 (З) 6{19}  н/о    3/0 средняя 
[Ac und]
+15.7 +13.3 86 +21  1003.4  2.2  748  282           
00 23.05.17 250 (З) н/о    3/0 средняя 
[Ac und]
+15.8 +12.7 82 +20  1004.1  0.7  748  283           
03 23.05.17 260 (З) 20000 м    8/8 600 м кучево-дожд. 
[Cb calv]
+18 +12.6 71 +23  1006.3  2.3  750  281           
06 23.05.17 240 (ЮЗ) 20000 м    8/8 600 м 
[Cu med, cong]
+22.3 +11.1 49 +25  1008.5  2.3  752  278  +15.5         
09 23.05.17 250 (З) 8{15}  20000 м    10/5 600 м кучево-дожд., верхняя 
[Cb calv|Ci sp]
+25 +9 36 +25  1010.1  1.6  753  276           
12 23.05.17 240 (ЮЗ) 8{15}  20000 м    8/8 600 м кучево-дожд., верхняя 
[Cb calv|Ci fib]
+26.5 +7.7 30 +27  1010.3  0.3  753  275           
15 23.05.17 230 (ЮЗ) 20000 м    5/1 600 м кучево-дожд., средняя, верхняя 
[Cb calv|Ac cuf|Ci sp]
+24.4 +9.4 39 +25  1010.5  0.1  753  277    +27       
18 23.05.17 250 (З) н/о    3/0 верхняя 
[Ci sp]
+18.8 +9.3 54 +20  1011.9  1.2  754  283    +27       
21 23.05.17 310 (СЗ) н/о    ясно 
+17 +10.3 65 +18  1012.1  0.2  754  284           
00 24.05.17 330 (СЗ) н/о    5/0 средняя, верхняя 
[Ac und|Ci fib]
+15.8 +9.4 66 +16  1012.9  0.7  755  286           
03 24.05.17 010 (С) 20000 м    8/0 средняя, верхняя 
[Ac und|Ci sp]
+18.4 +12.5 68 +23  1014.3  1.5  756  283           
06 24.05.17 020 (С) 20000 м    8/0 верхняя 
[Ci sp]
+22.6 +8.2 40 +23  1014.6  0.4  756  280  +14         
09 24.05.17 010 (С) 20000 м    8/3 1000 м верхняя 
[Cu hum|Ci sp]
+25.5 +8 33 +26  1014.3  -0.3  756  277           
12 24.05.17 050 (СВ) 20000 м    8/3 600 м кучево-дожд., верхняя 
[Cb calv|Ci sp]
+25.9 +5.5 27 +26  1014  -0.3  756  277           
15 24.05.17 040 (СВ) 20000 м    9/4 600 м кучево-дожд., средняя, верхняя 
[Cb calv|Ac und|Ci sp]
+22.9 +4.8 31 +23  1014.7  0.7  756  280    +26.4       
18 24.05.17 060 (СВ) н/о  слаб. ливневой дождь  10/10 600 м кучево-дожд. 
[Cb calv]
+19.5 +7.1 44 +20  1016.1  1.3  757  284    +26.4       
21 24.05.17 040 (СВ) н/о  {ливн. осадки}  3/0 верхняя 
[Ci sp]
+17.1 +1.1 34 +17  1016.8  0.7  758  287           
00 25.05.17 040 (СВ) 20000 м  {ливн. осадки}  3/0 верхняя 
[Ci sp]
+14.6 -0.5 35 +14  1017.9  759  290           
03 25.05.17 060 (СВ) 20000 м    8/0 верхняя 
[Ci sp]
+17.2 +0.9 33 +17  1018.9  1.1  759  288      0.0     
06 25.05.17 040 (СВ) 20000 м    8/0 верхняя 
[Ci sp]
+20.8 -0.5 24 +21  1019.1  0.2  760  284  +14.4    0.0     
09 25.05.17 060 (СВ) 20000 м    9/0 верхняя 
[Ci sp]
+23 -1.4 20 +23  1017.9  -1.1  759  282           
12 25.05.17 060 (СВ) 20000 м    8/0 средняя, верхняя 
[Ac lent|Ci sp]
+25 -4.4 14 +25  1016.8  -1.1  758  280           
15 25.05.17 080 (В) 20000 м    8/3 600 м кучево-дожд., средняя, верхняя 
[Cb calv|Ac und|Ci sp]
+24.5 -2.7 16 +25  1016.3  -0.5  758  280    +25.8       
18 25.05.17 050 (СВ) н/о    3/0 средняя 
[Ac cuf]
+19.9 -0.7 25 +21  1017.1  0.7  758  285    +25.8       
Время (UTC), дата Ветер
(°,м/с) 
Видим.   Явления Облачность Т
(°С)
Тd
(°С)
f(%) Тe
(°С)
Pmin
(гПа)
dP
(гПа)
Po
(мм)
O2
(г/м3)
Тmin Tmax R s Состояние
почвы

Для получения пояснительной информации подведите курсор к названию столбца.

ПОГОДА в Аральске - архив

Всё, что Вы хотите узнать о погоде в Аральске - удобно и подробно!

Выберите нужную дату (начиная с 1 января 2015* года) и нажмите кнопку "Найти".
Будут отображены архивные сводки погоды по пункту Аральск, начиная с указанной даты.


Отображать данные в формате CSV (для использования в таблицах Excel)


Внимание! Наш архив погоды предназначен исключительно для личного некоммерческого использования в познавательных целях. Если Вам необходимы официальные справки о состоянии погоды (для производственных, юридических, коммерческих и т.п. целей), обращайтесь в органы Росгидромета.

*Примечание: данная дата относится к архиву по метеостанциям СССР (Россия, СНГ, Балтия).
Архив по метеостанциям Зарубежной Европы и Азии (кроме Китая) хранится 10 дней, по другим регионам земного шара (Китай, Африка, Америка, Австралия, Океания) - 1 день.

Аральск - район местоположения метеостанции


Название, широта, долгота, высота метеостанции:
Аральск 46.8°ш. 61.6°д. 62 м над ур. моря [Казахстан]

Дополнительная информация

В oтличие oт бoльшинства пoгoдных сайтoв мы публикуем пoдрoбную метеoинфoрмацию в детальнoм прoфессиoнальнoм фoрмате.

Характеристики температуры и влажнoсти вoздуха измеряются на высoте 2 м в тени вдали oт зданий и деревьев.
Скoрoсть ветра измеряется на высoте 10 м (на урoвне рoста челoвека скoрoсть ветра ниже в 1.5-2 раза). Если метеoстанция нахoдится в гoрoде или в лесу, тo скoрoсть ветра занижена на 2-4 м/с пo сравнению с oткрытым местoм. Скoрoсть ветра над акватoриями крупных рек и oзёр, а также на вершинах хoлмoв на 2-5 м/с выше, чем в oбычных услoвиях.
Атмoсфернoе давление в разных тoчках местнoсти мoжет значительнo oтличаться oт давления на метеoстанции, в зависимoсти oт услoвий рельефа (при пoдъёме на 10 м давление пoнижается примернo на 1 мм рт.ст.).